This is the latest recevied weather packets stored in our database for station/object KE5YIM-13. If no packets are shown the sender has not sent any weather packets the latest 10 day(s).
| Time | Temp. | Humidity | Pressure | Rain* | Wind** | Luminosity | Snow |
|---|---|---|---|---|---|---|---|
| 1777624563 | 3.89° C | 93% | 1012 hPa | 0 mm | - | 0 W/m² | - |
| 1777624262 | 3.89° C | 92% | 1012 hPa | 0 mm | - | 0 W/m² | - |
| 1777623961 | 3.89° C | 92% | 1011.9 hPa | 0 mm | - | 0 W/m² | - |
| 1777623658 | 4.44° C | 91% | 1012 hPa | 0 mm | - | 0 W/m² | - |
| 1777623356 | 4.44° C | 91% | 1011.8 hPa | 0 mm | - | 0 W/m² | - |
| 1777623052 | 4.44° C | 89% | 1011.8 hPa | 0 mm | - | 0 W/m² | - |
| 1777622749 | 5° C | 88% | 1011.8 hPa | 0 mm | - | 0 W/m² | - |
| 1777622446 | 5° C | 88% | 1011.9 hPa | 0 mm | - | 0 W/m² | - |
| 1777622142 | 5° C | 86% | 1011.7 hPa | 0 mm | - | 0 W/m² | - |
| 1777621838 | 5.56° C | 84% | 1011.5 hPa | 0 mm | - | 0 W/m² | - |
| 1777621535 | 6.11° C | 82% | 1011.6 hPa | 0 mm | - | 0 W/m² | - |
| 1777621231 | 6.11° C | 82% | 1011.4 hPa | 0 mm | - | 0 W/m² | - |
| 1777620927 | 6.67° C | 80% | 1011.6 hPa | 0 mm | - | 0 W/m² | - |
| 1777620623 | 6.67° C | 78% | 1011.6 hPa | 0 mm | - | 0 W/m² | - |
| 1777620320 | 7.22° C | 77% | 1011.4 hPa | 0 mm | - | 0 W/m² | - |
| 1777620017 | 7.22° C | 78% | 1011.4 hPa | 0 mm | - | 0 W/m² | - |
| 1777619713 | 6.67° C | 80% | 1011.2 hPa | 0 mm | - | 0 W/m² | - |
| 1777619408 | 6.67° C | 79% | 1011.5 hPa | 0 mm | - | 0 W/m² | - |
| 1777619108 | 7.22° C | 80% | 1011.2 hPa | 0 mm | - | 0 W/m² | - |
| 1777618802 | 6.67° C | 82% | 1011.4 hPa | 0 mm | - | 0 W/m² | - |
| 1777618497 | 7.22° C | 83% | 1011.3 hPa | 0 mm | - | 0 W/m² | - |
| 1777618194 | 6.67° C | 85% | 1011.3 hPa | 0 mm | - | 0 W/m² | - |
| 1777617891 | 6.67° C | 86% | 1011.2 hPa | 0 mm | - | 0 W/m² | - |
| 1777617586 | 6.67° C | 85% | 1011.1 hPa | 0 mm | - | 0 W/m² | - |
| 1777617283 | 6.67° C | 85% | 1011.2 hPa | 0 mm | - | 0 W/m² | - |
* Rain latest hour (hover to see other rain measurements)
** Current wind speed in m/s (hover to see current wind gust speed)